Location: Braden Valley Church
(38.0012°N, 88.6106°W)
Time: 08:03:36
(UTC+00:00)

Cosmos 44 Rocket - Pass Details

Date: 08 December 2021
Orbit: 648 x 742 km, 65.1° (Epoch: 16 January)

Event Time Altitude Azimuth Distance (km) Brightness Sun altitude
Rises 23:06:28 0° 338° (NNW) 3,090 6.6 -6.4°
Reaches altitude 10° 23:09:06 10° 349° (N) 2,152 5.7 -6.9°
Maximum altitude 23:13:25 30° 51° (NE) 1,204 4.0 -7.7°
Drops below altitude 10° 23:17:36 10° 113° (ESE) 2,089 5.4 -8.4°
Sets 23:20:07 0° 124° (SE) 2,985 6.2 -8.9°
